RH
62 71 76 80 84 88 88 84 82 75 68 67 69 70 71 74 78 78 78 76 72 67 61 54 53 52 54 55 59 59 60 62 54 45 35 29 31 37 52 55 49 41 49
58 71 79 81 84 87 88 86 79 79 76 66 61 62 69 77 82 84 82 76 69 65 59 55 54 55 51 50 54 54 52 50 47 47 40 37 30 31 47 53 48 39 50
51 52 63 67 73 74 70 74 75 74 74 75 72 60 59 72 75 77 73 69 59 58 59 57 63 69 62 60 65 65 64 62 60 59 51 45 38 36 40 45 48 56 54
46 45 46 47 47 50 54 56 64 65 67 65 67 76 73 65 62 62 60 58 56 59 60 72 81 78 70 68 88 85 82 74 72 72 66 58 45 40 49 48 48 54 64
47 38 34 35 38 38 34 35 46 46 45 41 43 37 58 83 84 81 79 75 76 73 74 79 76 72 67 67 83 93 86 85 82 63 62 69 63 54 70 51 67 61 60
46 38 32 31 31 28 27 28 27 26 28 31 36 46 62 69 75 84 84 82 78 81 80 72 70 70 68 75 78 83 90 88 67 66 60 76 76 67 80 72 72 74 67
36 34 35 33 31 28 27 26 27 28 30 33 35 37 41 45 49 54 64 73 68 54 53 54 56 60 68 74 82 80 77 79 73 71 66 66 81 74 75 76 68 74 74
37 32 32 31 32 29 27 28 31 36 39 42 42 42 42 47 50 48 45 42 44 48 50 47 43 39 39 42 53 69 77 80 76 76 70 82 87 84 72 70 76 70 77
41 40 37 37 29 27 30 31 35 34 42 47 48 48 49 51 49 50 51 52 51 52 53 56 57 57 58 61 67 73 79 81 81 78 82 80 82 79 74 73 70 79 78
55 47 46 41 33 26 28 27 25 29 46 50 48 44 42 43 44 45 48 51 48 45 41 42 61 70 73 71 65 68 77 85 82 78 72 69 60 60 66 74 68 74 80
49 50 46 34 31 24 23 25 29 26 30 32 42 42 45 42 41 48 49 40 35 23 23 33 43 46 52 40 36 40 58 74 78 75 75 72 69 62 53 55 77 77 80
50 55 53 40 33 25 24 24 27 28 29 33 36 36 45 46 43 45 45 36 29 28 26 27 34 38 32 27 32 28 29 40 61 71 63 68 73 71 65 57 66 80 84
57 59 58 47 33 28 26 27 26 26 29 34 39 41 41 44 47 50 51 46 38 29 30 28 29 28 26 29 30 28 26 26 28 26 30 35 42 57 71 67 62 79 97
48 52 58 52 31 27 28 30 32 32 34 40 45 52 55 58 58 56 54 49 40 39 36 31 28 29 28 26 26 29 27 24 26 28 32 34 41 52 70 79 75 77 85
47 51 65 57 32 26 28 29 30 35 40 44 47 47 47 49 50 51 52 51 43 36 37 35 32 33 31 29 25 20 18 18 18 20 28 30 31 50 68 77 80 76 78
46 48 61 56 31 28 30 29 29 32 36 37 37 38 40 43 43 40 37 35 32 32 33 34 32 30 31 30 27 22 21 21 22 21 21 22 22 21 26 38 50 67 73
38 49 58 58 33 29 30 30 30 30 30 32 32 32 34 35 36 37 37 36 35 32 32 33 33 34 32 28 27 24 24 26 27 28 28 28 27 26 26 26 22 21 30
49 49 59 54 33 30 31 29 30 29 29 31 32 32 33 34 34 34 34 35 36 34 36 37 38 35 32 31 29 28 29 31 30 28 28 29 30 29 28 27 28 27 27
50 47 48 46 31 31 30 29 28 29 29 31 33 35 36 37 37 37 37 36 36 36 36 38 38 37 35 35 32 31 31 32 32 30 31 34 34 32 29 27 26 26 28
38 40 46 39 31 29 29 29 30 31 34 36 38 39 40 40 41 41 41 41 40 38 36 36 37 38 39 38 37 36 36 36 35 33 32 34 35 32 30 33 36 34 29
27 36 38 32 28 29 30 31 32 33 34 36 38 40 41 42 43 44 44 45 43 43 42 40 39 41 42 42 42 41 40 40 40 40 38 37 37 36 34 38 39 39 36
26 32 32 31 32 34 35 35 36 35 35 36 38 42 45 46 47 48 47 47 49 49 46 46 47 48 46 43 44 55 55 52 46 44 44 43 40 41 39 39 40 43 43
28 30 31 34 36 36 36 36 38 40 41 41 42 46 47 49 49 48 45 47 47 46 50 52 49 51 55 51 48 50 55 54 52 47 46 46 50 45 43 43 44 46 46
32 33 34 35 37 39 42 46 49 50 50 49 48 48 46 43 44 45 46 47 48 48 48 50 57 53 54 67 66 53 51 52 58 53 54 50 50 47 46 46 48 50 50
38 40 42 43 45 48 50 49 48 48 46 44 41 39 37 32 30 29 34 45 46 45 45 48 52 59 65 75 77 70 61 61 68 64 55 58 52 49 50 54 58 59 59
49 48 48 48 47 45 45 47 51 52 45 38 35 31 28 26 26 30 38 42 42 43 46 55 63 79 87 91 88 83 77 74 74 77 77 74 80 87 77 73 67 62 54
Wind_Speed
7 9 10 8 6 5 3 4 7 9 8 10 14 14 10 10 10 8 7 5 4 4 3 3 2 4 5 5 4 3 4 4 5 4 4 4 2 1 2 1 2 3 4
8 9 8 7 7 6 5 2 2 4 6 7 8 9 9 9 9 7 7 6 6 6 3 1 3 6 7 8 8 6 7 6 3 3 3 4 4 3 2 3 3 3 4
7 8 8 8 7 6 3 2 2 2 4 4 5 6 8 9 9 9 7 7 8 8 4 1 4 8 10 10 9 8 8 7 7 6 4 4 3 3 5 5 5 3 5
10 11 10 10 9 8 7 5 3 4 3 2 1 3 6 8 9 9 9 11 12 10 8 8 12 11 9 7 8 9 10 7 7 6 8 9 8 6 5 7 6 5 5
12 13 13 12 10 9 8 7 4 4 2 2 3 4 5 7 8 9 11 12 13 15 16 15 12 7 7 9 11 9 9 9 10 9 10 11 10 8 7 9 7 7 7
14 14 14 14 13 11 9 7 4 3 1 1 2 2 4 7 8 10 10 11 10 9 10 9 6 6 8 10 12 13 14 14 11 10 12 12 12 10 11 10 11 10 8
15 15 15 14 10 8 6 4 4 4 3 4 3 3 4 5 6 7 8 8 7 8 8 8 7 8 9 10 11 12 13 15 15 13 11 13 13 15 13 13 12 12 10
14 13 12 10 8 6 6 5 4 3 3 3 4 5 6 5 5 5 6 7 8 8 8 7 7 7 7 9 11 12 13 14 17 16 13 12 13 12 14 15 11 12 12
13 11 8 7 5 4 4 5 5 5 2 2 2 4 5 5 6 6 6 6 7 8 9 9 9 9 8 8 7 7 7 6 7 10 10 10 11 12 14 16 16 13 14
11 9 7 5 2 4 6 7 6 4 3 2 2 3 4 6 7 8 8 7 7 8 9 9 9 9 9 9 10 10 10 9 8 9 10 11 11 13 15 18 19 18 16
10 8 6 4 2 4 5 6 4 4 3 3 3 3 4 5 7 8 8 9 8 10 10 10 10 10 9 11 12 12 11 11 12 12 12 12 11 11 14 15 17 18 15
10 7 4 2 2 5 6 5 4 3 3 3 4 4 5 7 8 9 10 10 11 12 12 12 12 12 12 13 13 13 13 13 13 14 15 16 15 13 13 13 15 14 16
8 8 4 1 3 6 5 5 5 4 5 5 6 6 8 9 10 11 12 13 14 14 15 15 14 14 13 12 12 12 13 13 12 13 14 13 13 13 13 15 16 16 14
8 6 6 5 2 4 6 7 6 7 7 8 8 9 10 11 12 12 14 15 15 16 17 16 16 16 17 17 15 15 14 14 14 13 12 12 12 12 12 12 15 16 17
9 9 9 8 3 4 6 9 8 8 9 10 11 12 12 13 14 14 16 17 18 19 19 18 18 18 18 18 17 15 14 12 11 11 11 11 10 10 10 12 13 15 18
11 10 10 9 6 5 7 9 8 7 7 9 11 13 13 14 15 16 17 17 18 19 19 19 20 20 20 19 18 16 15 13 11 10 10 11 11 11 10 10 11 14 18
11 13 14 13 10 6 7 8 7 7 7 9 10 11 12 14 16 17 18 18 18 19 19 20 21 21 20 19 19 18 16 15 15 14 11 11 13 13 12 12 12 13 14
17 16 16 15 11 7 7 8 8 8 10 11 12 14 15 15 16 18 19 19 19 21 22 21 22 21 20 20 20 19 18 17 17 16 16 15 12 12 14 14 13 14 15
18 18 18 16 11 8 8 7 7 7 8 9 10 13 14 16 18 21 22 23 23 23 23 23 23 23 22 22 22 22 22 22 21 20 19 19 17 14 12 12 14 15 16
17 17 16 15 12 8 7 9 8 7 7 9 13 16 17 18 20 22 25 26 27 28 28 28 28 26 25 25 25 26 26 26 25 26 25 23 20 16 15 14 14 16 17
12 15 15 13 9 10 11 11 12 13 16 17 17 21 23 24 25 25 28 30 33 35 35 34 34 33 32 30 30 29 31 30 29 28 27 27 25 21 18 17 16 16 19
2 5 10 11 13 14 15 16 18 20 21 23 24 25 28 30 30 30 32 33 34 37 39 41 41 41 39 37 36 26 21 23 26 28 28 29 27 25 23 23 23 21 19
5 8 10 12 13 14 15 17 18 19 19 21 24 30 31 32 33 35 37 38 38 40 42 42 42 45 47 44 42 34 18 23 20 22 24 27 29 25 24 24 24 22 21
3 6 8 9 11 11 10 10 13 18 23 27 30 33 36 36 34 32 31 32 33 34 36 36 39 42 44 45 38 46 44 39 25 25 23 24 27 27 26 24 23 24 25
6 5 5 5 6 9 13 19 25 29 33 36 36 36 36 37 36 36 35 33 33 33 35 37 38 39 39 41 40 36 37 39 35 28 30 21 23 27 28 26 26 28 27
9 8 9 11 15 20 24 29 34 38 40 38 38 39 40 40 39 35 34 34 34 32 31 30 32 33 32 28 29 29 29 27 24 15 16 21 19 19 22 27 27 25 25
Wind_Direction
146 156 158 153 148 141 157 170 147 137 136 138 153 159 177 188 194 192 195 185 202 203 210 209 254 284 301 297 281 282 278 284 298 311 325 325 349 260 243 233 173 178 156
156 153 144 131 136 129 144 150 95 103 108 139 152 164 177 190 191 201 208 213 208 200 198 174 303 300 291 290 291 289 286 293 295 284 323 312 326 314 228 230 217 204 175
120 124 130 127 107 118 113 126 124 117 127 139 139 161 189 200 206 221 220 235 227 201 194 252 307 314 302 278 267 273 273 279 288 291 286 292 291 265 249 231 229 199 181
128 128 126 119 122 126 116 113 118 113 100 96 175 207 201 210 212 218 218 222 233 231 248 289 311 307 288 271 256 250 261 257 263 285 300 292 279 266 241 228 226 214 206
120 117 120 119 114 97 91 86 96 83 54 358 310 286 271 258 254 253 253 250 252 249 263 278 290 285 266 251 250 244 248 249 247 267 287 277 270 255 231 223 223 225 211
125 119 114 106 99 100 97 96 101 99 109 207 211 231 254 264 270 274 274 277 272 263 257 268 264 256 245 247 248 247 248 253 262 285 286 264 258 252 246 232 249 225 220
126 121 115 111 114 105 91 62 26 6 328 305 300 284 275 270 269 273 276 280 274 277 281 280 271 257 252 252 255 257 263 261 263 278 285 261 255 250 248 254 259 243 235
126 121 118 112 96 68 41 23 359 333 305 290 296 309 314 315 309 302 293 294 299 296 293 289 277 271 263 260 260 263 269 272 267 270 264 255 247 245 255 260 262 243 237
132 127 119 114 81 60 31 10 358 346 326 315 327 321 319 323 324 314 306 300 303 309 313 313 309 303 294 286 287 285 282 281 275 261 261 263 256 246 244 254 252 247 247
146 130 118 114 96 22 10 1 358 29 52 51 34 356 328 323 317 315 315 317 316 315 311 306 298 295 293 290 291 289 287 282 273 274 273 272 268 264 264 251 253 248 250
153 136 119 107 62 359 348 347 5 17 16 13 349 330 310 308 309 308 306 307 307 312 313 309 300 297 294 294 292 293 292 285 276 278 278 275 278 275 277 274 269 263 249
174 160 148 147 359 345 332 335 322 324 344 344 355 345 311 306 306 302 298 300 302 303 303 300 292 287 287 287 290 293 294 293 289 284 283 282 278 270 261 267 263 258 251
173 186 193 246 337 346 342 322 303 294 308 321 326 330 324 317 312 307 303 300 301 305 303 303 299 296 291 286 283 285 290 292 288 287 287 290 279 276 270 259 256 258 250
191 191 229 249 325 23 19 356 318 301 301 305 309 313 317 314 310 304 303 300 299 301 300 299 299 301 301 300 297 292 289 289 291 293 288 288 289 290 271 263 258 260 258
225 230 242 247 288 2 2 359 343 313 304 304 309 310 309 306 304 302 300 298 297 298 296 293 294 298 300 301 299 296 296 292 284 284 290 293 294 289 284 268 261 258 260
230 239 248 250 270 319 346 349 346 327 313 313 314 313 311 308 306 304 301 300 299 298 295 293 292 294 296 297 296 294 293 292 288 280 279 288 293 293 287 275 265 261 261
236 242 244 245 261 303 319 330 332 330 329 325 322 322 320 316 312 308 305 303 305 299 294 293 293 290 289 290 290 289 289 289 289 289 286 283 289 293 289 282 278 275 264
247 251 245 242 258 293 315 324 321 330 335 335 336 333 329 326 321 315 310 306 307 303 300 297 297 291 290 290 288 285 284 283 281 283 287 290 288 286 291 295 291 281 277
258 257 245 241 258 278 298 307 310 326 337 344 353 349 337 327 323 317 314 311 304 301 296 291 290 286 285 286 284 281 281 282 281 281 282 284 284 290 290 295 302 300 290
259 252 239 243 252 271 296 292 294 306 325 327 330 332 327 326 323 316 311 308 302 295 292 290 287 284 279 277 274 273 274 274 273 275 274 272 272 277 284 291 299 299 297
255 241 245 246 259 270 279 286 287 289 297 305 309 312 313 311 307 304 303 300 298 293 293 288 281 277 274 273 267 270 270 271 269 269 267 265 262 261 264 278 292 303 298
242 242 244 238 248 263 276 285 288 292 294 299 303 301 303 302 300 297 295 291 288 287 284 281 279 275 271 269 264 259 264 271 268 265 262 256 246 255 258 269 281 291 302
184 216 228 242 264 280 288 291 291 293 296 294 290 294 298 304 301 297 295 292 288 284 281 279 275 271 270 271 266 251 258 259 260 261 259 241 249 248 256 267 277 285 295
296 279 276 289 297 299 307 317 321 320 316 310 307 307 306 307 306 303 300 295 290 288 285 283 277 271 270 260 260 256 251 253 252 259 257 245 237 246 255 262 276 284 288
17 28 34 18 347 336 330 326 325 324 321 318 317 313 314 313 311 308 303 300 298 294 288 283 278 274 270 267 254 252 248 247 249 246 253 244 241 243 253 268 275 281 286
45 26 8 349 338 330 326 327 322 317 309 311 311 314 313 311 311 307 302 301 299 298 294 286 278 271 267 258 246 239 239 242 243 233 246 247 254 269 277 279 283 284 285